This is the latest recevied weather packets stored in our database for station/object OE-11149. If no packets are shown the sender has not sent any weather packets the latest 10 day(s).
| Time | Temp. | Humidity | Pressure | Rain* | Wind** | Luminosity | Snow |
|---|---|---|---|---|---|---|---|
| 1788032120 | 11.11° C | 84% | 853.4 hPa | 0 mm | - | 0 W/m² | - |
| 1788031520 | 11.11° C | 84% | 853.4 hPa | 0 mm | - | 0 W/m² | - |
| 1788030693 | 11.67° C | 80% | 853.4 hPa | 0 mm | - | 0 W/m² | - |
| 1788030320 | 11.67° C | 81% | 853.3 hPa | 0 mm | - | 0 W/m² | - |
| 1788029720 | 11.67° C | 81% | 853.3 hPa | 0 mm | - | 0 W/m² | - |
| 1788028893 | 11.67° C | 80% | 853.2 hPa | 0 mm | - | 0 W/m² | - |
| 1788028520 | 11.67° C | 79% | 853.2 hPa | 0 mm | - | 0 W/m² | - |
| 1788027920 | 12.22° C | 76% | 853.1 hPa | 0 mm | - | 0 W/m² | - |
| 1788027093 | 12.22° C | 75% | 852.9 hPa | 0 mm | - | 0 W/m² | - |
| 1788026720 | 12.78° C | 75% | 853 hPa | 0 mm | - | 7 W/m² | - |
| 1788026120 | 12.78° C | 74% | 852.9 hPa | 0 mm | - | 7 W/m² | - |
| 1788025293 | 12.78° C | 74% | 853 hPa | 0 mm | - | 13 W/m² | - |
| 1788024920 | 12.78° C | 75% | 853.1 hPa | 0 mm | - | 20 W/m² | - |
| 1788024320 | 12.78° C | 75% | 853 hPa | 0 mm | - | 26 W/m² | - |
| 1788023493 | 12.78° C | 74% | 853.1 hPa | 0 mm | - | 26 W/m² | - |
| 1788023119 | 12.78° C | 73% | 853 hPa | 0 mm | - | 60 W/m² | - |
| 1788022520 | 12.78° C | 73% | 853.1 hPa | 0 mm | - | 60 W/m² | - |
| 1788021693 | 13.33° C | 72% | 853 hPa | 0 mm | - | 93 W/m² | - |
| 1788021320 | 13.33° C | 72% | 853 hPa | 0 mm | - | 79 W/m² | - |
| 1788020719 | 13.33° C | 72% | 853 hPa | 0 mm | - | 73 W/m² | - |
| 1788019893 | 13.33° C | 71% | 852.9 hPa | 0 mm | - | 73 W/m² | - |
| 1788019520 | 13.33° C | 70% | 852.9 hPa | 0 mm | - | 99 W/m² | - |
| 1788018919 | 13.33° C | 68% | 852.8 hPa | 0 mm | - | 146 W/m² | - |
| 1788018093 | 13.89° C | 68% | 852.7 hPa | 0 mm | - | 232 W/m² | - |
| 1788017720 | 13.89° C | 69% | 852.8 hPa | 0 mm | - | 219 W/m² | - |
* Rain latest hour (hover to see other rain measurements)
** Current wind speed in m/s (hover to see current wind gust speed)